Regional Weather Roundup
Issued by NWS

Home | Current Version | Previous Version | Text Only | Print | Product List | Glossary On
Versions: 1 2 3 4 5 6 7 8 9 10 11 12 13 14 15 16 17 18 19 20 21 22 23 24 25 26 27 28 29 30 31 32 33 34 35 36 37 38 39 40 41 42 43 44 45 46 47 48 49 50
000
ASUS43 KFSD 161910
RWRSD

WEATHER ROUNDUP FOR SOUTH DAKOTA
NATIONAL WEATHER SERVICE SIOUX FALLS SD
200 PM CDT WED AUG 16 2017

NOTE: "FAIR" INDICATES FEW OR NO CLOUDS BELOW 12,000 FEET WITH NO
SIGNIFICANT WEATHER AND/OR OBSTRUCTIONS TO VISIBILITY.


SDZ001>005-009-010-012>017-162000-
NORTHWEST AND NORTH CENTRAL SOUTH DAKOTA

CITY           SKY/WX    TMP DP  RH WIND       PRES   REMARKS
BUFFALO          N/A     77  52  41 NW6       29.94S
FAITH            N/A     76  54  46 NE16      29.96S
MOBRIDGE       CLOUDY    70  60  70 N13       29.89F
$$

SDZ012>016-024>037-041>051-057-063-072>074-162000-
SOUTHWEST AND SOUTH CENTRAL SOUTH DAKOTA

CITY           SKY/WX    TMP DP  RH WIND       PRES   REMARKS
RAPID CTY ARPT MOSUNNY   76  52  43 N12       30.02S
PIERRE         CLOUDY    67  59  75 N14       29.90S
CUSTER         SUNNY     69  40  34 NE14G21   30.12R
PHILIP         CLOUDY    75  58  55 N13       29.95S
PINE RIDGE     CLOUDY    73  57  57 NW12      30.02S
SPEARFISH      FAIR      72  46  40 NE6       30.06S
WINNER         LGT RAIN  66  63  90 NW15      29.91R
$$

SDZ004>011-016>023-039-040-162000-
NORTHEAST SOUTH DAKOTA

CITY           SKY/WX    TMP DP  RH WIND       PRES   REMARKS
ABERDEEN       LGT RAIN  68  66  93 NW10      29.84S
WATERTOWN      RAIN      66  66 100 NE9       29.81F FOG
BROOKINGS      RAIN      67  66  97 N3        29.82S
SISSETON         N/A     69  67  93 CALM      29.82S
$$

SDZ017-020-022-023-036>040-048>070-162000-
SOUTHEAST SOUTH DAKOTA

CITY           SKY/WX    TMP DP  RH WIND       PRES   REMARKS
SIOUX FALLS    LGT RAIN  68  67  96 N10       29.77F
HURON          LGT RAIN  68  67  96 NW12      29.81F
CHAMBERLAIN    LGT RAIN  67  67 100 NW12      29.87S
MITCHELL       CLOUDY    69  65  86 N5        29.82F
YANKTON        LGT RAIN  66  65  96 NW15      29.78F
$$

ABBREVIATIONS USED IN REMARKS
   TC - TEMPERATURE IN CELSIUS
  WCI - WIND CHILL INDEX
   HX - HEAT INDEX
  VSB - VISIBILITY




USA.gov is the U.S. government's official web portal to all federal, state and local government web resources and services.